Three Rivers, MI

4:41 PM EDT on May 25, 2017 (GMT -0400)
Three Rivers Municipal-Haines

Weather History for KHAI - January, 2013

Change the Weather History Date:

Wednesday, January 23, 2013

  Actual Average Record
Temperature  
Mean Temperature 12 °F -  
Max Temperature 18 °F 34 °F 57 °F (1967)
Min Temperature 5 °F 17 °F -8 °F (1963)
Degree Days  
Heating Degree Days 54    
Moisture  
Dew Point 6 °F    
Average Humidity 75    
Maximum Humidity 87    
Minimum Humidity 60    
Precipitation  
Precipitation 0.00 in - - ()
Sea Level Pressure  
Sea Level Pressure 30.17 in    
Wind  
Wind Speed 7 mph (SW)    
Max Wind Speed 16 mph    
Max Gust Speed 21 mph    
Visibility 7 miles    
Events Snow    
Averages and records for this station are not official NWS values.
T = Trace of Precipitation, MM = Missing Value Source: NWS Daily Summary

Daily Weather History Graph

Daily Weather History Graph

Search for Another Location

Airport or City:

Trip Planner

Search our weather history database for the weather conditions in past years. The results will help you decide how hot, cold, wet, or windy it might be!

Date:

Astronomy

Jan. 23, 2013 Rise Set
Actual Time 8:02 AM EST 5:46 PM EST
Civil Twilight 7:32 AM EST 6:16 PM EST
Nautical Twilight 6:58 AM EST 6:50 PM EST
Astronomical Twilight 6:25 AM EST 7:23 PM EST
Moon 2:55 PM EST (1/23) 5:14 AM EST (1/23)
Length of Visible Light 10h 43m
Length of Day
9h 43m
Waxing Gibbous, 89% of the Moon is Illuminated
Jan 23
Waxing Gibbous
Jan 26
Full
Feb 3
Last Quarter
Feb 10
New
Feb 17
First Quarter

Hourly Weather History & Observations

Time (EST) Temp. Windchill Dew Point Humidity Pressure Visibility Wind Dir Wind Speed Gust Speed Precip Events Conditions
12:15 AM 7.3 °F -4.1 °F 2.7 °F 81% 30.27 in 4.0 mi SW 6.9 mph - N/A Snow Light Snow
12:34 AM 7.5 °F -6.0 °F 3.0 °F 82% 30.26 in 3.0 mi SW 9.2 mph - N/A Snow Light Snow
12:55 AM 7.3 °F -4.1 °F 2.8 °F 82% 30.26 in 5.0 mi SW 6.9 mph - N/A Snow Light Snow
1:15 AM 7.2 °F -3.0 °F 2.8 °F 82% 30.26 in 3.0 mi SW 5.8 mph - N/A Snow Light Snow
1:34 AM 6.6 °F -2.2 °F 2.3 °F 82% 30.25 in 2.5 mi SW 4.6 mph - N/A Snow Light Snow
1:55 AM 5.9 °F -3.0 °F 1.9 °F 84% 30.26 in 4.0 mi SW 4.6 mph - N/A Snow Light Snow
2:15 AM 6.4 °F -3.9 °F 2.5 °F 84% 30.25 in 7.0 mi SW 5.8 mph - N/A Snow Light Snow
2:34 AM 7.2 °F -4.3 °F 3.2 °F 84% 30.25 in 10.0 mi SW 6.9 mph - N/A   Overcast
2:55 AM 7.7 °F -3.7 °F 3.7 °F 84% 30.25 in 10.0 mi SW 6.9 mph - N/A Snow Light Snow
3:14 AM 8.1 °F -0.5 °F 3.9 °F 83% 30.25 in 7.0 mi WSW 4.6 mph - N/A Snow Light Snow
3:35 AM 8.1 °F -0.5 °F 3.7 °F 83% 30.26 in 7.0 mi WSW 4.6 mph - N/A   Overcast
3:55 AM 8.1 °F 1.4 °F 3.7 °F 83% 30.26 in 10.0 mi WSW 3.5 mph - N/A   Overcast
4:14 AM 8.2 °F 1.6 °F 3.9 °F 83% 30.25 in 5.0 mi WSW 3.5 mph - N/A Snow Light Snow
4:35 AM 7.7 °F -2.4 °F 3.7 °F 84% 30.25 in 4.0 mi WSW 5.8 mph - N/A Snow Light Snow
4:54 AM 7.7 °F - 3.7 °F 84% 30.25 in 4.0 mi Calm Calm - N/A Snow Light Snow
5:15 AM 7.5 °F - 3.2 °F 82% 30.24 in 5.0 mi Calm Calm - N/A Snow Light Snow
5:35 AM 7.5 °F - 3.2 °F 82% 30.24 in 10.0 mi Calm Calm - N/A Snow Light Snow
5:54 AM 7.7 °F 1.0 °F 3.2 °F 82% 30.24 in 10.0 mi SW 3.5 mph - N/A   Overcast
6:15 AM 7.7 °F -0.9 °F 2.8 °F 81% 30.24 in 10.0 mi SW 4.6 mph - N/A   Overcast
6:35 AM 8.1 °F -0.5 °F 2.8 °F 79% 30.24 in 10.0 mi SW 4.6 mph - N/A   Overcast
6:54 AM 8.6 °F -1.3 °F 3.0 °F 78% 30.24 in 10.0 mi WSW 5.8 mph - N/A   Overcast
7:15 AM 9.3 °F -0.5 °F 3.2 °F 76% 30.24 in 5.0 mi WSW 5.8 mph - N/A Snow Light Snow
7:34 AM 9.5 °F -0.3 °F 3.2 °F 76% 30.24 in 7.0 mi SW 5.8 mph - N/A   Overcast
7:55 AM 9.5 °F -2.6 °F 2.3 °F 73% 30.23 in 7.0 mi SW 8.1 mph - N/A   Overcast
8:14 AM 9.9 °F -3.1 °F 1.8 °F 70% 30.23 in 10.0 mi SW 9.2 mph - N/A   Overcast
8:35 AM 10.0 °F -0.9 °F 1.4 °F 68% 30.22 in 10.0 mi SW 6.9 mph - N/A   Overcast
8:55 AM 10.2 °F -1.7 °F 1.0 °F 66% 30.22 in 10.0 mi SW 8.1 mph - N/A   Overcast
9:14 AM 10.6 °F -3.1 °F 1.0 °F 65% 30.22 in 10.0 mi SW 10.4 mph - N/A   Overcast
9:35 AM 11.1 °F -0.6 °F 0.5 °F 62% 30.22 in 10.0 mi SW 8.1 mph 17.3 mph N/A   Overcast
9:55 AM 11.3 °F -1.3 °F 0.9 °F 63% 30.22 in 10.0 mi SW 9.2 mph - N/A   Overcast
10:14 AM 12.0 °F 0.5 °F 1.0 °F 61% 30.22 in 10.0 mi SW 8.1 mph - N/A   Overcast
10:35 AM 12.4 °F 0.0 °F 1.6 °F 62% 30.22 in 10.0 mi SW 9.2 mph 16.1 mph N/A   Overcast
10:55 AM 12.7 °F 1.4 °F 1.4 °F 61% 30.22 in 10.0 mi SW 8.1 mph - N/A   Overcast
11:14 AM 13.3 °F 0.3 °F 1.8 °F 60% 30.22 in 10.0 mi SW 10.4 mph - N/A   Overcast
11:35 AM 13.6 °F 2.5 °F 2.3 °F 61% 30.22 in 10.0 mi SW 8.1 mph - N/A   Overcast
11:54 AM 13.5 °F -2.7 °F 2.7 °F 62% 30.21 in 10.0 mi SW 16.1 mph - N/A   Overcast
12:15 PM 14.0 °F 0.5 °F 2.8 °F 61% 30.20 in 10.0 mi SW 11.5 mph - N/A   Overcast
12:35 PM 14.0 °F 0.5 °F 3.6 °F 63% 30.19 in 7.0 mi WSW 11.5 mph - N/A   Overcast
12:54 PM 14.2 °F 4.1 °F 4.1 °F 64% 30.18 in 5.0 mi WSW 6.9 mph 17.3 mph N/A   Haze
1:15 PM 14.5 °F 0.5 °F 4.5 °F 64% 30.16 in 7.0 mi SW 12.7 mph - N/A   Overcast
1:35 PM 14.9 °F 2.3 °F 4.6 °F 64% 30.15 in 7.0 mi WSW 10.4 mph 16.1 mph N/A   Overcast
1:54 PM 14.9 °F 0.9 °F 5.4 °F 66% 30.13 in 7.0 mi SW 12.7 mph 17.3 mph N/A   Overcast
2:15 PM 15.3 °F 4.4 °F 5.5 °F 65% 30.12 in 7.0 mi SW 8.1 mph - N/A   Overcast
2:35 PM 15.4 °F 3.0 °F 6.4 °F 68% 30.12 in 7.0 mi SW 10.4 mph - N/A   Overcast
2:54 PM 15.4 °F 3.0 °F 6.6 °F 68% 30.11 in 7.0 mi SW 10.4 mph - N/A   Overcast
3:15 PM 15.4 °F 3.0 °F 7.0 °F 69% 30.10 in 10.0 mi SW 10.4 mph - N/A   Overcast
3:35 PM 15.6 °F 1.8 °F 6.4 °F 67% 30.10 in 10.0 mi WSW 12.7 mph 17.3 mph N/A   Overcast
3:54 PM 15.6 °F 3.2 °F 5.9 °F 66% 30.10 in 10.0 mi SW 10.4 mph - N/A   Overcast
4:15 PM 15.8 °F 7.2 °F 5.4 °F 63% 30.09 in 10.0 mi WSW 5.8 mph - N/A   Overcast
4:35 PM 15.8 °F 5.1 °F 5.2 °F 63% 30.08 in 10.0 mi WSW 8.1 mph - N/A   Overcast
4:55 PM 15.8 °F 6.1 °F 5.7 °F 64% 30.08 in 10.0 mi SW 6.9 mph - N/A   Overcast
5:15 PM 15.4 °F 5.6 °F 5.9 °F 66% 30.07 in 10.0 mi SW 6.9 mph - N/A   Overcast
5:34 PM 15.3 °F 4.4 °F 6.3 °F 68% 30.07 in 10.0 mi SW 8.1 mph - N/A   Overcast
5:55 PM 15.3 °F 2.8 °F 7.5 °F 71% 30.07 in 10.0 mi SSW 10.4 mph - N/A   Overcast
6:15 PM 15.3 °F 3.5 °F 7.7 °F 72% 30.06 in 10.0 mi SSW 9.2 mph - N/A   Overcast
6:34 PM 14.9 °F 5.0 °F 7.9 °F 74% 30.06 in 10.0 mi SW 6.9 mph - N/A   Overcast
6:55 PM 14.9 °F 4.0 °F 9.0 °F 77% 30.06 in 7.0 mi SSW 8.1 mph - N/A   Overcast
7:15 PM 14.9 °F 3.1 °F 10.0 °F 81% 30.05 in 5.0 mi SSW 9.2 mph - N/A Snow Light Snow
7:34 PM 15.4 °F 3.8 °F 10.9 °F 82% 30.05 in 3.0 mi SSW 9.2 mph - N/A Snow Light Snow
7:55 PM 15.6 °F 4.0 °F 11.7 °F 84% 30.04 in 1.5 mi SW 9.2 mph - N/A Snow Light Snow
8:15 PM 15.6 °F 4.9 °F 12.2 °F 86% 30.04 in 1.0 mi SW 8.1 mph - N/A Snow Snow
8:34 PM 15.8 °F 5.1 °F 12.6 °F 87% 30.04 in 1.2 mi SW 8.1 mph - N/A Snow Snow
8:55 PM 16.3 °F 9.2 °F 13.1 °F 87% 30.05 in 0.8 mi WSW 4.6 mph - N/A Snow Snow
9:15 PM 16.5 °F 8.1 °F 13.1 °F 86% 30.05 in 1.0 mi SW 5.8 mph - N/A Snow Snow
9:35 PM 16.5 °F 8.1 °F 13.3 °F 87% 30.06 in 1.5 mi West 5.8 mph - N/A Snow Light Snow
9:55 PM 17.6 °F 6.4 °F 14.2 °F 86% 30.06 in 1.5 mi WNW 9.2 mph - N/A Snow Light Snow
10:14 PM 18.3 °F 9.1 °F 14.4 °F 85% 30.07 in 1.2 mi NW 6.9 mph - N/A Snow Light Snow
10:35 PM 18.1 °F 4.4 °F 13.5 °F 82% 30.08 in 5.0 mi NNW 13.8 mph 18.4 mph N/A Snow Light Snow
10:54 PM 16.5 °F 1.8 °F 12.4 °F 84% 30.10 in 1.2 mi North 15.0 mph 20.7 mph N/A Snow Light Snow
11:15 PM 15.6 °F 4.9 °F 11.7 °F 84% 30.12 in 1.8 mi North 8.1 mph - N/A Snow Light Snow
11:35 PM 15.4 °F 3.8 °F 11.1 °F 83% 30.13 in 3.0 mi North 9.2 mph - N/A Snow Light Snow
11:54 PM 14.7 °F 2.1 °F 8.6 °F 77% 30.15 in 10.0 mi North 10.4 mph - N/A   Overcast